Regional Weather Roundup
Issued by NWS Sioux Falls, SD

Home | Current Version | Previous Version | Text Only | Print | Product List | Glossary On
Versions: 1 2 3 4 5 6 7 8 9 10 11 12 13 14 15 16 17 18 19 20 21 22 23 24 25 26 27 28 29 30 31 32 33 34 35 36 37 38 39 40 41 42 43 44 45 46 47 48 49 50
000
ASUS43 KFSD 250110
RWRFSD

WEATHER ROUNDUP FOR SE SOUTH DAKOTA/SW MINNESOTA/NW IOWA
NATIONAL WEATHER SERVICE SIOUX FALLS SD
800 PM CDT MON APR 24 2017

NOTE: "FAIR" INDICATES FEW OR NO CLOUDS BELOW 12,000 FEET WITH NO
SIGNIFICANT WEATHER AND OR OBSTRUCTIONS TO VISIBILITY.


SDZ038>040-050-052>070-250200-
SOUTHEAST SOUTH DAKOTA

CITY           SKY/WX    TMP DP  RH WIND       PRES   REMARKS
BROOKINGS      MOCLDY    56  45  66 W3        29.51R
CHAMBERLAIN    CLEAR     52  41  65 W18       29.60R
HURON          PTCLDY    50  39  66 NW20G25   29.56R
MADISON        FAIR      55  43  62 NW14      29.52R
MITCHELL       PTCLDY    56  42  59 NW10      29.56R
SIOUX FALLS    MOCLDY    61  47  59 NW12      29.50R
WINNER         FAIR      53  41  63 N12       29.61R
YANKTON        CLEAR     55  41  58 NW17      29.53R
$$

MNZ071-072-080-081-089-090-097-098-250200-
SOUTHWEST MINNESOTA

CITY           SKY/WX    TMP DP  RH WIND       PRES   REMARKS
FAIRMONT       CLOUDY    64  36  35 S9        29.53F
JACKSON        CLOUDY    63  36  36 CALM      29.52F
LUVERNE        CLEAR     61  39  44 S8        29.50S
MARSHALL       CLOUDY    63  44  50 MISG      29.48F
MONTEVIDEO     CLOUDY    61  46  59 S6        29.48F
PIPESTONE      PTCLDY    61  41  48 NW9       29.51R
REDWOOD FALLS  CLOUDY    63  41  44 S13       29.50F
TRACY          LGT RAIN  65  43  45 S9        29.50S
WINDOM         RAIN      63  43  48 CALM      29.52F
WORTHINGTON    CLOUDY    62  44  51 S7        29.51F
$$

IAZ001>003-012>014-020>022-031-032-NEZ013-014-SDZ071-250200-
NORTHWEST IOWA

CITY           SKY/WX    TMP DP  RH WIND       PRES   REMARKS
CHEROKEE       CLOUDY    66  40  38 S12       29.51S
DENISON        CLOUDY    68  41  37 S12       29.54S
ESTHERVILLE    CLOUDY    64  37  36 S9G17     29.52F
LE MARS        CLOUDY    68  43  40 W5        29.50R
ORANGE CITY    CLOUDY    66  45  45 S6        29.50R
SHELDON        CLOUDY    66  41  39 S10       29.48S
SIOUX CITY     CLOUDY    69  43  38 W3        29.49R
SPENCER        CLOUDY    66  39  37 S12       29.51F
STORM LAKE     CLOUDY    68  39  34 S17       29.53S
$$

ABBREVIATIONS USED IN REMARKS
   TC - TEMPERATURE IN CELSIUS
  WCI - WIND CHILL INDEX
   HX - HEAT INDEX
  VSB - VISIBILITY




USA.gov is the U.S. government's official web portal to all federal, state and local government web resources and services.